User: anonymous   Login
Location: Raleigh
(35.7720°N, 78.6390°W)
Time: 18:58:00
(UTC-04:00)
Language:

FO-29 - Orbit

View from above orbital plane
View from above orbital plane
View from above satellite
View from above satellite

Ground track
Ground track

The orbit data is extracted from the following two-line orbital elements,

1 24278U 96046B   18109.51672377 -.00000037 +00000-0 +14178-5 0  9992
2 24278 098.5224 316.3415 0349290 263.1456 092.9835 13.53083029070054
Epoch (UTC): 19 April 2018 12:24:04
Eccentricity: 0.0349290
inclination: 98.5224°
perigee height: 801 km
apogee height: 1321 km
right ascension of ascending node: 316.3415°
argument of perigee: 263.1456°
revolutions per day: 13.53083029
mean anomaly at epoch: 92.9835°
orbit number at epoch: 7005

The dashed part of the orbit path shows where the satellite is in the earth's shadow,  

DLR